Stations météo

Publicité
Saarbrücken-Ensheim, Allemagne (10708): Température de l'air & dewpoint: 15.07.2019 16:00:00 - 21.07.2019 16:00:00 (CEST)Saarbrücken-Ensheim, Allemagne (10708): Température de l'air 5cm & Température de l'air -5cm: 15.07.2019 16:00:00 - 21.07.2019 16:00:00 (CEST)Saarbrücken-Ensheim, Allemagne (10708): Température de l'air -20cm & Température de l'air -100cm: 15.07.2019 16:00:00 - 21.07.2019 16:00:00 (CEST)Saarbrücken-Ensheim, Allemagne (10708): Vitesse du vent & gusts: 15.07.2019 16:00:00 - 21.07.2019 16:00:00 (CEST)Saarbrücken-Ensheim, Allemagne (10708): Direction du vent: 15.07.2019 16:00:00 - 21.07.2019 16:00:00 (CEST)Saarbrücken-Ensheim, Allemagne (10708): reduced air pressure: 15.07.2019 16:00:00 - 21.07.2019 16:00:00 (CEST)Saarbrücken-Ensheim, Allemagne (10708): visibility: 15.07.2019 16:00:00 - 21.07.2019 16:00:00 (CEST)Saarbrücken-Ensheim, Allemagne (10708): Ensoleillement: 15.07.2019 16:00:00 - 21.07.2019 16:00:00 (CEST)Saarbrücken-Ensheim, Allemagne (10708): Quantités de précipitations: 15.07.2019 16:00:00 - 21.07.2019 16:00:00 (CEST)
Date & Time tt [°C] td [°C] tt 5cm [°C] tt -5cm [°C] tt -20cm [°C] tt -100cm [°C] ff [km/h] ff [knt] fx [km/h] fx [knt] dd ppp [hPa] vv [km] sd [min] rr [mm]
21.07.2019 16:00:00 26,7 11,7 30,3 35,3 27,2 19,9 18 10 37 20 W 1020,8 10 46 0,0
21.07.2019 15:00:00 26,8 11,5 32,1 35,1 26,4 19,9 18 10 35 19 WNW 1020,6 60 56 0,0
21.07.2019 14:00:00 25,9 12,2 31,7 32,6 25,6 19,9 18 10 35 19 W 1021,1 60 41 0,0
21.07.2019 13:00:00 24,6 12,3 28,9 31,5 24,9 19,9 19 10 32 17 W 1021,2 60 36 0,0
21.07.2019 12:00:00 23,9 13,8 28,8 29,9 24,2 19,9 15 8 25 13 WNW 1021,0 10 39 0,0
21.07.2019 11:00:00 22,9 13,0 27,5 28,1 23,5 19,9 13 7 22 12 W 1020,9 10 60 0,0
21.07.2019 10:00:00 22,1 13,8 26,8 25,3 23,1 19,9 13 7 26 14 W 1020,5 50 60 0,0
21.07.2019 09:00:00 20,2 14,2 23,7 22,5 23,0 19,9 9 5 15 8 W 1020,3 10 50 0,0
21.07.2019 08:00:00 18,9 14,9 21,7 20,9 23,2 19,9 9 5 15 8 W 1020,0 10 51 0,0
21.07.2019 07:00:00 17,5 14,7 17,2 20,2 23,5 19,8 5 3 8 4 W 1019,3 50 4 0,0
21.07.2019 06:00:00 16,7 14,7 14,8 20,4 23,9 19,8 2 1 5 3 - 1018,9 10 0 0,0
21.07.2019 05:00:00 16,6 14,4 13,2 21,1 24,3 19,8 5 3 8 4 SSW 1018,3 45 0 0,0
21.07.2019 04:00:00 18,3 14,4 14,0 22,0 24,7 19,8 4 2 8 4 SW 1017,6 45 0 0,0
21.07.2019 03:00:00 20,0 14,5 15,8 22,8 25,1 19,8 9 5 13 7 W 1017,4 45 0 0,0
21.07.2019 02:00:00 19,3 15,6 17,3 23,4 25,5 19,8 5 3 8 4 SW 1017,1 10 0 0,0
21.07.2019 01:00:00 20,0 14,9 16,9 24,2 26,0 19,8 4 2 9 5 - 1016,4 10 0 0,0
21.07.2019 00:00:00 21,3 15,0 19,2 24,8 26,5 19,8 4 2 13 7 WSW 1015,7 45 0 0,0
20.07.2019 23:00:00 20,2 15,4 17,4 25,7 27,0 19,8 8 4 11 6 W 1015,2 40 0 0,0
20.07.2019 22:00:00 21,9 16,0 19,2 27,2 27,5 19,8 2 1 11 6 - 1014,4 10 0 0,0
20.07.2019 21:00:00 22,7 15,7 22,2 28,7 28,0 19,8 6 4 23 13 WSW 1013,4 40 0 -
20.07.2019 20:00:00 23,1 14,7 23,1 30,5 28,3 19,8 13 7 49 26 S 1012,8 10 0 0,0
20.07.2019 19:00:00 26,5 14,2 26,8 32,7 28,3 19,8 17 9 48 26 SSW 1011,6 50 12 0,0
20.07.2019 18:00:00 29,3 11,4 30,5 34,7 28,1 19,8 31 17 48 26 WSW 1010,8 50 56 0,0
20.07.2019 17:00:00 30,2 11,0 32,5 35,5 27,7 19,8 29 16 53 29 WSW 1010,9 10 38 0,0
20.07.2019 16:00:00 28,7 12,6 30,6 35,4 27,1 19,8 24 13 41 22 SW 1011,3 55 29 0,0
20.07.2019 15:00:00 29,4 12,1 32,9 36,0 26,1 19,8 27 14 44 24 SW 1011,3 55 46 0,0
20.07.2019 14:00:00 29,8 12,6 34,5 34,8 25,1 19,8 26 14 41 22 SW 1011,4 50 49 0,0
20.07.2019 13:00:00 28,8 13,7 33,8 32,9 24,0 19,8 21 11 39 21 S 1011,5 50 55 0,0
20.07.2019 12:00:00 26,9 13,4 30,9 31,0 22,9 19,8 22 12 47 25 SW 1012,2 10 59 0,0
20.07.2019 11:00:00 26,0 13,6 29,4 27,9 22,0 19,8 21 11 35 19 SSW 1012,0 10 60 0,0
20.07.2019 10:00:00 25,0 14,7 27,5 24,6 21,5 19,8 11 6 18 10 S 1012,2 10 59 0,0
20.07.2019 09:00:00 23,3 14,5 25,0 21,5 21,2 19,8 11 6 15 8 E 1012,2 10 60 0,0
20.07.2019 08:00:00 19,9 14,4 19,6 19,2 21,3 19,8 5 3 9 5 E 1013,0 10 55 0,0
20.07.2019 07:00:00 17,3 13,9 17,2 17,9 21,5 19,7 5 3 9 5 E 1013,4 50 43 0,0
20.07.2019 06:00:00 15,1 13,3 13,1 18,0 21,9 19,7 9 5 15 8 ENE 1013,6 10 0 0,0
20.07.2019 05:00:00 15,3 13,2 13,3 18,5 22,2 19,7 9 5 13 7 ENE 1013,9 10 0 0,0
20.07.2019 04:00:00 15,7 13,7 13,9 19,0 22,6 19,7 11 6 15 8 E 1014,0 50 0 0,0
20.07.2019 03:00:00 16,2 13,6 14,4 19,5 23,0 19,7 11 6 14 8 E 1014,4 50 0 0,0
20.07.2019 02:00:00 16,1 13,4 13,8 20,1 23,4 19,7 9 5 11 6 E 1014,7 10 0 0,0
20.07.2019 01:00:00 16,9 13,9 13,5 20,9 23,9 19,7 9 5 13 7 E 1015,1 10 0 0,0
20.07.2019 00:00:00 17,8 13,7 14,1 21,9 24,3 19,7 5 3 11 6 NE 1015,0 10 0 0,0
19.07.2019 23:00:00 18,7 13,8 15,2 23,1 24,7 19,7 8 4 9 5 NE 1014,9 10 0 0,0
19.07.2019 22:00:00 20,0 14,2 16,7 24,5 25,0 19,7 4 2 8 4 E 1014,7 10 0 0,0
19.07.2019 21:00:00 22,0 14,6 20,6 26,0 25,2 19,7 5 3 8 4 NW 1014,2 10 0 0,0
19.07.2019 20:00:00 23,1 13,3 23,0 27,0 25,2 19,7 4 2 15 8 W 1014,1 10 1 0,0
19.07.2019 19:00:00 23,4 13,1 24,8 27,8 25,1 19,7 11 6 22 12 W 1014,3 10 19 0,0
19.07.2019 18:00:00 23,4 13,2 25,4 27,8 25,0 19,7 13 7 20 11 SW 1014,6 10 8 0,0
19.07.2019 17:00:00 22,7 13,7 25,0 28,1 24,9 19,7 13 7 26 14 W 1015,0 50 0 0,0
19.07.2019 16:00:00 22,4 13,7 26,0 27,6 24,7 19,7 11 6 24 13 W 1015,2 50 3 0,0
19.07.2019 15:00:00 21,8 13,5 24,2 27,6 24,4 19,6 15 8 28 15 W 1015,5 10 0 0,0
19.07.2019 14:00:00 21,9 13,0 25,2 29,9 23,8 19,6 16 9 25 14 W 1015,4 10 38 0,0
19.07.2019 13:00:00 21,6 14,4 26,1 26,6 23,4 19,6 21 11 33 18 W 1015,8 40 10 0,0
19.07.2019 12:00:00 19,4 14,9 20,1 26,4 23,0 19,6 17 9 25 14 W 1016,1 35 18 0,0
19.07.2019 11:00:00 19,6 14,3 21,6 25,1 22,5 19,6 13 7 24 13 W 1016,0 10 16 0,0
19.07.2019 10:00:00 20,2 14,5 24,7 23,7 22,2 19,6 13 7 18 10 W 1015,5 10 51 0,0
19.07.2019 09:00:00 18,1 14,0 20,1 21,2 22,2 19,6 13 7 15 8 W 1015,6 10 8 0,0
19.07.2019 08:00:00 17,3 13,4 18,0 20,2 22,4 19,6 4 2 13 7 W 1015,3 35 0 0,0
19.07.2019 07:00:00 16,9 12,8 16,8 20,0 22,6 19,6 7 4 18 10 NNW 1014,7 35 0 0,0
19.07.2019 06:00:00 17,4 12,8 16,4 20,2 22,8 19,6 6 3 18 10 W 1014,5 35 0 0,0
19.07.2019 05:00:00 18,1 13,0 17,6 20,5 23,1 19,5 9 5 15 8 SSW 1014,0 10 0 0,0
19.07.2019 04:00:00 18,3 12,4 16,9 20,7 23,4 19,5 6 4 12 6 S 1014,0 35 0 0,0
19.07.2019 03:00:00 18,0 11,4 15,1 21,0 23,8 19,5 2 1 9 5 - 1014,2 10 0 0,0
19.07.2019 02:00:00 17,2 12,0 15,4 21,3 24,2 19,5 2 1 8 4 - 1014,3 10 0 0,0
19.07.2019 01:00:00 17,3 12,4 15,0 21,9 24,6 19,5 5 3 5 3 E 1014,2 10 0 0,0
19.07.2019 00:00:00 17,6 11,9 14,6 22,7 25,1 19,5 2 1 4 2 - 1014,0 10 0 0,0
18.07.2019 23:00:00 17,9 12,8 15,0 23,7 25,6 19,5 4 2 4 2 ESE 1013,9 10 0 0,0
18.07.2019 22:00:00 19,5 11,8 16,4 25,1 26,1 19,5 3 1 5 3 SSE 1013,5 40 0 0,0
18.07.2019 21:00:00 21,1 11,2 19,0 26,6 26,5 19,5 4 2 18 10 - 1012,8 10 0 0,0
18.07.2019 20:00:00 22,7 10,4 22,8 28,1 26,8 19,5 15 8 29 16 WNW 1012,2 10 0 0,0
18.07.2019 19:00:00 24,3 11,5 25,3 29,6 26,9 19,5 16 9 35 19 NW 1011,5 10 0 0,0
18.07.2019 18:00:00 25,4 10,5 26,9 30,5 27,0 19,5 21 11 34 18 WNW 1011,0 10 0 0,0
18.07.2019 17:00:00 25,5 9,0 26,7 31,6 26,8 19,5 16 9 27 15 WNW 1010,9 10 5 0,0
18.07.2019 16:00:00 26,3 8,4 29,4 34,1 26,3 19,5 14 8 29 16 W 1010,9 40 40 0,0
18.07.2019 15:00:00 26,0 8,5 30,0 33,2 25,6 19,4 14 7 22 12 W 1011,2 40 29 0,0
18.07.2019 14:00:00 25,1 8,5 27,7 33,5 24,7 19,4 14 7 44 24 W 1011,7 40 36 0,0
18.07.2019 13:00:00 24,3 10,2 28,3 32,6 23,6 19,4 8 4 23 13 - 1012,2 10 51 0,0
18.07.2019 12:00:00 24,5 11,1 30,0 29,8 22,6 19,4 11 6 18 10 W 1012,2 10 60 0,0
18.07.2019 11:00:00 21,7 12,7 25,5 26,4 21,9 19,4 8 4 13 7 W 1012,5 10 55 0,0
18.07.2019 10:00:00 19,6 12,3 23,9 22,6 21,5 19,4 5 3 9 5 SW 1012,8 30 60 0,0
18.07.2019 09:00:00 18,8 12,9 21,4 20,4 21,5 19,4 5 3 8 4 S 1012,9 22 60 0,0
18.07.2019 08:00:00 16,4 12,1 17,5 18,4 21,7 19,4 2 1 4 2 - 1012,8 10 27 0,0
18.07.2019 07:00:00 13,8 11,3 11,9 17,8 22,1 19,4 0 0 9 5 N 1012,9 10 0 0,0
18.07.2019 06:00:00 13,8 10,8 10,9 18,2 22,6 19,3 8 4 11 6 ENE 1012,8 10 0 0,0
18.07.2019 05:00:00 14,3 11,0 10,3 18,9 23,0 19,3 8 4 13 7 ENE 1012,8 10 0 0,0
18.07.2019 04:00:00 14,0 10,8 11,2 19,7 23,5 19,3 5 3 9 5 ENE 1013,3 40 0 0,0
18.07.2019 03:00:00 15,1 10,9 12,2 20,4 24,0 19,3 5 3 15 8 E 1013,3 40 0 0,0
18.07.2019 02:00:00 16,4 10,7 13,9 21,1 24,6 19,3 11 6 18 10 ENE 1013,0 10 0 0,0
18.07.2019 01:00:00 16,9 10,2 15,3 22,0 25,2 19,3 13 7 21 11 NE 1012,9 10 0 0,0
18.07.2019 00:00:00 17,9 10,0 16,0 23,1 25,9 19,3 11 6 20 11 NE 1012,8 10 0 0,0
17.07.2019 23:00:00 20,5 8,4 18,5 24,3 26,6 19,3 11 6 21 11 NNE 1012,3 10 0 0,0
17.07.2019 22:00:00 20,0 7,3 13,5 26,4 27,3 19,3 8 4 11 6 N 1012,3 10 0 0,0
17.07.2019 21:00:00 22,2 8,1 18,4 28,9 27,8 19,3 8 4 13 7 NNW 1011,7 10 54 0,0
17.07.2019 20:00:00 23,7 6,1 22,4 30,9 28,1 19,3 8 4 17 9 NNW 1011,5 10 48 0,0
17.07.2019 19:00:00 25,6 4,9 27,0 34,3 28,0 19,3 11 6 23 13 NW 1011,3 10 60 0,0
17.07.2019 18:00:00 25,6 4,6 29,0 36,0 27,6 19,3 11 6 23 12 NW 1011,7 10 60 0,0
17.07.2019 17:00:00 25,9 6,2 31,0 36,8 26,8 19,3 5 3 25 13 - 1012,1 10 60 0,0
17.07.2019 16:00:00 25,2 6,5 31,4 36,7 25,9 19,3 15 8 24 13 WSW 1012,6 40 60 0,0
17.07.2019 15:00:00 25,1 7,2 30,9 35,8 24,8 19,3 8 4 22 12 N 1012,7 40 60 0,0
17.07.2019 14:00:00 23,8 8,0 29,3 33,9 23,6 19,3 11 6 22 12 NW 1013,4 10 60 0,0
17.07.2019 13:00:00 22,9 9,5 29,5 32,1 22,4 19,3 8 4 17 9 - 1013,9 10 60 0,0
17.07.2019 12:00:00 21,7 11,3 28,4 29,1 21,3 19,3 9 5 16 8 WSW 1014,2 10 60 0,0
17.07.2019 11:00:00 20,1 11,5 25,3 25,5 20,5 19,3 5 3 9 5 - 1014,6 10 60 0,0
17.07.2019 10:00:00 18,6 11,2 23,3 22,1 20,0 19,3 4 2 13 7 - 1014,8 10 60 0,0
17.07.2019 09:00:00 16,5 10,6 18,7 18,8 19,9 19,2 8 4 15 8 ENE 1015,0 18 60 0,0
17.07.2019 08:00:00 15,1 10,3 16,2 16,7 20,1 19,2 7 4 13 7 NE 1015,3 16 60 0,0
17.07.2019 07:00:00 12,8 9,7 11,8 15,6 20,5 19,2 5 3 11 6 ENE 1015,7 10 27 0,0
17.07.2019 06:00:00 11,5 9,5 7,4 15,8 21,0 19,2 5 3 11 6 ENE 1016,0 15 0 0,0
17.07.2019 05:00:00 12,3 9,6 8,3 16,4 21,5 19,2 4 2 9 5 - 1016,1 10 0 0,0
17.07.2019 04:00:00 12,0 9,9 7,8 17,2 22,1 19,2 2 1 8 4 ENE 1016,4 30 0 0,0
17.07.2019 03:00:00 12,9 9,5 8,2 18,1 22,7 19,2 5 3 12 7 NNW 1016,5 30 0 0,0
17.07.2019 02:00:00 13,9 9,8 9,4 19,2 23,3 19,3 8 4 15 8 ENE 1016,5 10 0 0,0
17.07.2019 01:00:00 15,0 10,3 11,8 20,3 23,9 19,3 12 7 16 9 NE 1016,3 40 0 0,0
17.07.2019 00:00:00 15,5 10,4 12,1 21,6 24,6 19,3 4 2 9 5 - 1016,3 10 0 0,0
16.07.2019 23:00:00 16,4 10,5 12,2 23,2 25,3 19,3 5 3 12 7 NNW 1016,2 40 0 0,0
16.07.2019 22:00:00 18,5 9,9 13,7 25,1 26,0 19,3 8 4 11 6 NW 1015,9 10 0 0,0
16.07.2019 21:00:00 20,2 11,1 17,1 27,5 26,5 19,3 9 5 11 6 NNW 1015,5 10 12 0,0
16.07.2019 20:00:00 22,4 10,0 21,3 30,0 26,8 19,3 8 4 10 5 NNW 1015,3 45 48 0,0
16.07.2019 19:00:00 23,5 8,1 25,0 33,4 26,6 19,3 6 3 13 7 N 1015,2 45 60 0,0
16.07.2019 18:00:00 24,2 7,8 26,6 34,9 26,1 19,3 8 4 16 8 N 1015,3 10 60 0,0
16.07.2019 17:00:00 23,7 6,6 28,5 36,1 25,3 19,3 8 4 16 9 NW 1015,7 10 59 0,0
16.07.2019 16:00:00 22,7 7,1 27,7 35,9 24,2 19,3 9 5 18 10 W 1016,2 10 60 0,0
16.07.2019 15:00:00 21,8 8,1 27,1 34,8 23,0 19,3 5 3 15 8 - 1016,5 10 60 0,0
16.07.2019 14:00:00 21,2 9,0 27,0 32,8 21,6 19,3 8 4 18 10 - 1017,0 10 60 0,0
16.07.2019 13:00:00 19,8 8,0 24,8 30,1 20,4 19,3 6 3 15 8 NNW 1017,6 25 60 0,0
16.07.2019 12:00:00 18,7 8,7 24,4 26,7 19,3 19,3 9 5 16 9 E 1018,1 20 60 0,0
16.07.2019 11:00:00 17,1 8,5 20,5 22,9 18,6 19,3 6 3 18 10 E 1018,6 20 60 0,0
16.07.2019 10:00:00 15,7 7,9 18,6 19,5 18,1 19,3 11 6 20 11 NE 1018,8 18 60 0,0
16.07.2019 09:00:00 14,2 8,0 16,4 16,8 18,0 19,4 9 5 15 8 NE 1019,2 12 60 0,0
16.07.2019 08:00:00 12,5 8,9 15,2 14,6 18,1 19,4 5 3 8 4 NE 1019,1 8 60 0,0
16.07.2019 07:00:00 9,7 7,9 10,0 13,4 18,5 19,4 2 1 2 1 - 1019,5 8 31 0,0
16.07.2019 06:00:00 8,3 7,3 5,3 13,6 18,9 19,4 0 0 4 2 N 1019,7 8 0 0,0
16.07.2019 05:00:00 9,4 8,0 6,2 14,2 19,4 19,4 0 0 8 4 N 1019,5 10 0 0,0
16.07.2019 04:00:00 10,7 8,2 8,4 14,9 19,8 19,4 4 2 9 5 ENE 1019,7 25 0 0,0
16.07.2019 03:00:00 10,8 8,2 7,5 15,6 20,3 19,4 5 3 9 5 NE 1019,6 10 0 0,0
16.07.2019 02:00:00 11,2 8,5 8,0 16,3 20,9 19,4 4 2 18 10 - 1019,7 10 0 0,0
16.07.2019 01:00:00 11,9 8,6 10,0 17,3 21,5 19,4 9 5 18 10 NE 1019,6 10 0 0,0
16.07.2019 00:00:00 13,0 8,6 11,7 18,4 22,1 19,4 11 6 27 14 NE 1019,3 10 0 0,0
15.07.2019 23:00:00 14,4 9,2 13,3 19,9 22,7 19,4 16 9 29 16 NE 1018,7 10 0 0,0
15.07.2019 22:00:00 15,9 9,8 14,4 21,7 23,2 19,5 11 6 21 11 NE 1018,1 10 1 0,0
15.07.2019 21:00:00 18,1 10,1 17,2 23,9 23,6 19,5 13 7 22 12 NE 1017,3 10 36 0,0
15.07.2019 20:00:00 20,8 9,7 20,7 26,2 23,7 19,5 13 7 21 11 NE 1016,7 10 60 0,0
15.07.2019 19:00:00 21,3 9,0 22,7 29,1 23,4 19,5 9 5 22 12 E 1016,5 60 52 0,0
15.07.2019 18:00:00 21,3 8,7 23,9 30,3 22,9 19,5 11 6 21 11 N 1016,8 10 60 0,0
15.07.2019 17:00:00 21,2 9,9 24,8 29,9 22,2 19,5 9 5 23 12 NE 1017,0 50 42 0,0
15.07.2019 16:00:00 20,5 9,0 24,9 28,6 21,4 19,5 9 5 27 14 - 1017,1 10 30 0,0

tt = Température de l'air
td = dewpoint
tt 5cm = Température de l'air 5cm
tt -5cm = Température de l'air -5cm
tt -20cm = Température de l'air -20cm
tt -100cm = Température de l'air -100cm
ff = Vitesse du vent
fx = gusts
dd = Direction du vent
ppp = reduced air pressure
vv = visibility
sd = Ensoleillement
rr = Quantités de précipitations

stations d'obs. à proximité